Flag for Poland Weather past 2 weeks in Warsaw, Poland

Now
77 °F

Passing clouds.


Feels Like: 79 °F
Forecast: 65 / 80 °F
Wind: 12 mph from East

Location: Warsaw Okecie Airport

Current Time: Jul 22, 2014 at 11:48:11 AM

Latest Report: Jul 22, 2014 at 11:30 AM


Visibility: N/A

Pressure: 29.98 "Hg

Humidity: 54%

Dew point: 59 °F

Location of WarsawLocation

Historic Weather in Warsaw — Graph

°F

Warsaw temperature yesterday

Maximum temperature yesterday: 81 °F (at 2:00 PM)
Minimum temperature yesterday: 61 °F (at 4:00 AM)
Average temperature yesterday: 72 °F

Past Weeks' High & Low Weather Summary

 TemperatureHumidityPressure
High88 °F (Jul 8, 2:00 PM)100% (Jul 11, 12:00 AM)30.15 "Hg (Jul 11, 12:00 AM)
Low55 °F (Jul 13, 4:30 AM)32% (Jul 19, 5:00 PM)29.65 "Hg (Jul 9, 3:00 PM)
Average70 °F71%29.92 "Hg
* Reported Jul 7 11:00 AM — Jul 22 11:00 AM, Warsaw, Weather by CustomWeather, © 2014

Note: Actual official high and low records may vary slightly from our data, if they occured in-between our weather recording intervals... More about our weather records

Advertising

Warsaw weather history for previous 24 hours

 ConditionsComfort  
Time TempWeatherWind HumidityBarometerVisibility
11:00 AM
Jul 22
75 °FPassing clouds.12 mph57%29.98 "HgN/A
10:30 AM73 °FPassing clouds.10 mph65%29.98 "HgN/A
10:00 AM73 °FPassing clouds.9 mph69%29.98 "HgN/A
9:30 AM72 °FPassing clouds.7 mph69%29.98 "HgN/A
9:00 AM70 °FPassing clouds.7 mph73%29.95 "HgN/A
8:30 AM70 °FSunny.8 mph69%29.95 "Hg10 mi
8:00 AM68 °FSunny.8 mph73%29.95 "Hg10 mi
7:30 AM66 °FSunny.10 mph78%29.95 "Hg10 mi
7:00 AM66 °FSunny.8 mph78%29.95 "Hg10 mi
6:30 AM64 °FSunny.8 mph78%29.95 "Hg10 mi
6:00 AM64 °FSunny.9 mph78%29.95 "Hg10 mi
5:30 AM64 °FClear.9 mph78%29.92 "Hg10 mi
5:00 AM63 °FClear.8 mph83%29.92 "Hg10 mi
4:30 AM63 °FClear.9 mph83%29.92 "Hg10 mi
4:00 AM64 °FClear.7 mph78%29.92 "Hg10 mi
3:30 AM64 °FClear.8 mph78%29.92 "Hg10 mi
3:00 AM64 °FClear.7 mph78%29.92 "Hg10 mi
2:30 AM66 °FClear.8 mph73%29.92 "Hg10 mi
2:00 AM64 °FClear.5 mph78%29.92 "Hg10 mi
1:30 AM66 °FClear.7 mph73%29.92 "Hg10 mi
1:00 AM68 °FClear.8 mph69%29.92 "Hg10 mi
12:30 AM68 °FClear.8 mph69%29.92 "Hg10 mi
12:00 AM70 °FClear.8 mph64%29.92 "Hg10 mi
11:30 PM
Jul 21
70 °FClear.9 mph60%29.92 "Hg10 mi
11:00 PM72 °FClear.8 mph57%29.92 "Hg10 mi
10:30 PM72 °FClear.6 mph57%29.89 "Hg10 mi
10:00 PM73 °FClear.7 mph53%29.89 "Hg10 mi
9:30 PM72 °FSunny.7 mph53%29.89 "Hg10 mi
9:00 PM73 °FSunny.8 mph50%29.89 "Hg10 mi
8:30 PM75 °FSunny.6 mph44%29.89 "Hg10 mi
8:00 PM75 °FSunny.7 mph44%29.86 "Hg10 mi
7:30 PM77 °FSunny.6 mph39%29.86 "Hg10 mi
7:00 PM79 °FPassing clouds.8 mph39%29.86 "HgN/A
6:30 PM79 °FPassing clouds.7 mph39%29.86 "HgN/A
6:00 PM79 °FSunny.9 mph39%29.86 "Hg10 mi
5:30 PM81 °FPassing clouds.8 mph39%29.86 "HgN/A
5:00 PM81 °FPassing clouds.8 mph37%29.86 "HgN/A
4:30 PM79 °FPassing clouds.7 mph42%29.86 "HgN/A
4:00 PM81 °FPassing clouds.7 mph39%29.86 "HgN/A
3:30 PM81 °FPassing clouds.7 mph45%29.86 "HgN/A
3:00 PM81 °FPassing clouds.6 mph45%29.86 "HgN/A
2:30 PM79 °FPassing clouds.8 mph48%29.86 "HgN/A
2:00 PM81 °FPassing clouds.9 mph51%29.86 "HgN/A
1:30 PM79 °FScattered clouds.10 mph51%29.86 "HgN/A
1:00 PM77 °FScattered clouds.10 mph57%29.86 "HgN/A
12:30 PM77 °FScattered clouds.9 mph61%29.86 "HgN/A
12:00 PM77 °FScattered clouds.8 mph57%29.86 "HgN/A
11:30 AM75 °FPassing clouds.8 mph61%29.86 "HgN/A
11:00 AM75 °FPassing clouds.8 mph61%29.86 "HgN/A
Weather by CustomWeather, © 2014

See weather overviewHow to use our weather pages